[[{"header":{"parameterUnit":"m.s-1","parameterCategory":1,"la1":30.2991,"la2":30.254,"lo1":-89.0895,"lo2":-89.0444,"dy":0.0017,"dx":0.0017,"nx":28,"ny":28,"refTime":"2023-10-24T21:00:00:Z","depth":0,"parameterNumber":2,"parameterNumberName":"U-component_of_WINDS"},"data":[0,0,0,0,0,0,0,0,0,0,0,0,0,0,0,0,0,0,0,0,0,0,0,0,0,0,0,0,0,0,0,0,0,0,0,0,0,0,0,0,0,0,0,0,0,0,0,0,0,0,0,0,0,0,0,0,0,0,-4.8667,-4.8669,0,-4.8864,-4.8866,-4.8869,-4.8827,-4.8823,-4.882,-4.8816,-4.9021,-4.9029,-4.9038,0,0,0,0,0,0,0,0,0,0,0,0,0,-4.8258,-4.8266,-4.8666,-4.8669,-4.8672,-4.8864,-4.8867,-4.8869,-4.8828,-4.8823,-4.8819,-4.8814,-4.9018,-4.9028,-4.9039,0,0,0,0,0,0,0,0,0,0,0,0,0,-4.8444,-4.8269,-4.8666,-4.8674,-4.8676,-4.8863,-4.8867,-4.887,-4.8829,-4.8823,-4.8817,-4.8812,-4.9014,-4.9027,-4.904,-4.9232,0,0,-4.9081,-4.9086,0,0,0,0,0,0,0,0,-4.8433,-4.8459,-4.867,-4.8674,-4.8677,-4.8815,-4.8798,-4.8992,-4.883,-4.8771,-4.8816,-4.881,-4.8957,-4.8974,-4.9024,-4.9242,-4.925,-4.9082,-4.909,-4.9096,-4.9099,0,0,0,0,0,0,0,-4.8421,-4.845,-4.8745,-4.8673,-4.8678,-4.8669,-4.8689,-4.8834,-4.8892,-4.8776,-4.8773,-4.8797,-4.8958,-4.9011,-4.9028,-4.9253,-4.9082,-4.9093,-4.9102,-4.9107,-4.9643,-4.9649,0,0,0,0,0,0,-4.8404,-4.844,-4.8738,-4.8751,-4.8539,-4.8681,-4.8704,-4.8776,-4.8891,-4.8903,-4.8801,-4.8794,-4.8991,-4.9013,-4.9035,-4.9269,-4.9096,-4.9108,-4.9116,-4.9637,-4.9645,-4.9652,0,0,0,0,0,0,-4.8396,-4.8431,-4.873,-4.8595,-4.8632,-4.8694,-4.8776,-4.8783,-4.8836,-4.891,-4.8921,-4.8845,-4.8987,-4.9016,-4.9184,-4.9275,-4.9114,-4.9126,-4.963,-4.964,-4.9648,-4.9736,0,0,0,0,0,0,-4.8384,-4.8428,-4.85,-4.8597,-4.864,-4.8874,-4.8782,-4.8791,-4.8859,-4.8852,-4.8954,-4.8965,-4.8985,-4.9165,-4.9197,-4.929,-4.9136,-4.9622,-4.9634,-4.9645,-4.9726,-4.9748,-4.9767,0,0,0,0,0,-4.837,-4.8517,-4.8504,-4.854,-4.873,-4.888,-4.8904,-4.8924,-4.8867,-4.894,-4.8989,-4.8962,-4.9261,-4.9182,-4.9219,-4.9317,-4.9616,-4.9631,-4.9644,-4.9716,-4.9743,-4.9766,0,0,0,0,0,0,-4.8428,-4.8529,-4.8516,-4.8698,-4.8781,-4.8872,-4.8965,-4.8951,-4.9052,-4.9041,-4.9062,-4.9086,-4.9257,-4.9304,-4.9215,-4.9511,-4.9431,-4.9453,-4.9473,-4.9499,-4.9519,-4.9503,-4.9147,0,0,0,0,0,-4.8463,-4.8574,-4.8657,-4.881,-4.8853,-4.8903,-4.8968,-4.8977,-4.9063,-4.9098,-4.9158,-4.9244,-4.9358,-4.9432,-4.954,-4.9734,-4.9757,-4.9821,-4.9841,-4.9858,-4.9875,-4.9985,-5.0014,-4.9698,-4.9698,-4.9698,0,0,-4.8534,-4.8603,-4.8672,-4.8824,-4.8889,-4.9006,-4.8932,-4.9057,-4.9145,-4.9117,-4.9278,-4.9327,-4.9425,-4.9607,-4.9691,-4.9652,-4.9969,-4.9876,-4.9888,-4.9897,-5.0002,-5.0032,-5.0059,-4.9708,-4.9706,-4.9704,0,0,-4.8723,-4.8787,-4.8922,-4.899,-4.909,-4.9123,-4.9156,-4.9251,-4.9282,-4.9445,-4.9428,-4.9534,-4.9728,-4.98,-4.9861,-5.0085,-5.0065,-5.0121,-5.0226,-5.0332,-5.0357,-5.0379,-5.046,-5.0488,-5.0139,-5.0139,-5.0139,0,-4.8799,-4.8973,-4.8994,-4.9123,-4.9191,-4.9173,-4.9312,-4.9377,-4.9508,-4.9556,-4.9512,-4.9758,-4.9823,-5.0023,-5.0078,-5.0129,-5.0168,-5.0107,-5.0352,-5.0374,-5.0395,-5.0472,-5.0502,-5.0145,-5.0145,-5.0144,-5.0143,0,-4.9062,-4.9184,-4.9282,-4.9409,-4.9489,-4.9622,-4.9665,-4.9744,-4.9748,-4.9787,-4.9956,-5.0034,-5.0159,-5.0208,-5.0212,-5.0411,-5.0384,-5.0346,-5.0265,-5.0431,-5.0504,-5.0533,-5.0154,-5.0152,-5.015,-5.0148,0,0,-4.9287,-4.9429,-4.9464,-4.9523,-4.9635,-4.973,-4.9866,-4.9988,-5.0056,-5.0149,-5.0263,-5.0432,-5.0399,-5.0469,-5.0483,-5.0576,-5.075,-5.0527,-5.053,-5.0565,-5.0975,-5.1001,-5.1035,-5.074,-5.0745,-5.075,-5.0967,0,-4.9486,-4.9721,-4.9747,-4.9958,-5.0072,-5.0061,-5.0179,-5.0262,-5.0304,-5.0408,-5.0455,-5.0574,-5.0521,-5.0564,-5.0657,-5.0709,-5.0832,-5.0694,-5.0847,-5.0852,-5.082,-5.1073,-5.11,-5.13,-5.0995,-5.1,-5.1004,0,-4.9747,-4.9848,-5.0071,-5.0171,-5.022,-5.0325,-5.0442,-5.0542,-5.0638,-5.0663,-5.0745,-5.0747,-5.0889,-5.0806,-5.1003,-5.0909,-5.0974,-5.1011,-5.1019,-5.1031,-5.0935,-5.1091,-5.1365,-5.1394,-5.1049,-5.1045,-5.1042,0,-4.9888,-5.0081,-5.024,-5.0291,-5.0412,-5.0487,-5.0541,-5.0632,-5.0705,-5.0809,-5.0858,-5.0977,-5.1042,-5.1136,-5.1172,-5.1108,-5.1368,-5.1287,-5.1393,-5.1392,-5.1445,-5.1441,-5.1731,-5.1491,-5.1491,-5.149,-5.1489,0,-5.0106,-5.0242,-5.0305,-5.0403,-5.0557,-5.0588,-5.074,-5.0791,-5.0874,-5.0982,-5.0982,-5.1084,-5.1127,-5.1238,-5.1268,-5.1428,-5.1458,-5.1482,-5.1488,-5.1481,-5.1478,-5.1521,-5.1508,-5.1498,-5.1496,-5.1495,-5.1493,0,-5.0287,-5.0335,-5.0507,-5.061,-5.0639,-5.0748,-5.0837,-5.0932,-5.0976,-5.1114,-5.1149,-5.1217,-5.1348,-5.1394,-5.1553,-5.1574,-5.1759,-5.1754,-5.1726,-5.1727,-5.183,-5.1819,-5.2157,-5.2203,-5.1934,-5.1936,-5.1939,0,-5.042,-5.0526,-5.0641,-5.0714,-5.0771,-5.0889,-5.0965,-5.1002,-5.1081,-5.1202,-5.1284,-5.1415,-5.152,-5.173,-5.1795,-5.1918,-5.1915,-5.2026,-5.1933,-5.1924,-5.1916,-5.1909,-5.192,-5.2041,-5.2044,-5.2046,-5.2048,0,-5.0653,-5.0673,-5.0782,-5.0902,-5.0994,-5.109,-5.1183,-5.1243,-5.1295,-5.1385,-5.1519,-5.1602,-5.1766,-5.1896,-5.2023,-5.2081,-5.2075,-5.2078,-5.2109,-5.2101,-5.208,-5.2092,-5.1771,-5.2069,-5.2067,-5.2065,-5.2064,-5.2063,-5.0814,-5.0908,-5.1005,-5.1128,-5.1203,-5.1292,-5.1387,-5.1444,-5.1556,-5.1692,-5.1709,-5.1853,-5.1952,-5.2122,-5.2187,-5.2303,-5.2272,-5.2317,-5.2328,-5.2338,-5.2346,-5.2064,-5.2326,-5.2326,-5.2325,-5.2325,-5.2324,0,-5.1046,-5.1109,-5.1223,-5.1354,-5.1452,-5.144,-5.1544,-5.1627,-5.1754,-5.1847,-5.1952,-5.2108,-5.2236,-5.2314,-5.2443,-5.2521,-5.2521,-5.2553,-5.2547,-5.2561,-5.2365,-5.2325,-5.2551,-5.2551,-5.2551,-5.2551,-5.2551,-5.2551,-5.1177,-5.1337,-5.1369,-5.1567,-5.163,-5.1772,-5.1833,-5.1916,-5.199,-5.2164,-5.2271,-5.2321,-5.2409,-5.2546,-5.2664,-5.2684,-5.2731,-5.2766,-5.2783,-5.2598,-5.2574,-5.2552,-5.2514,-5.2776,-5.2776,-5.2969,-5.297,-5.2972]},{"header":{"parameterUnit":"m.s-1","parameterCategory":1,"la1":30.2991,"la2":30.254,"lo1":-89.0895,"lo2":-89.0444,"dy":0.0017,"dx":0.0017,"nx":28,"ny":28,"refTime":"2023-10-24T21:00:00:Z","depth":0,"parameterNumber":3,"parameterNumberName":"V-component_of_WINDS"},"data":[0,0,0,0,0,0,0,0,0,0,0,0,0,0,0,0,0,0,0,0,0,0,0,0,0,0,0,0,0,0,0,0,0,0,0,0,0,0,0,0,0,0,0,0,0,0,0,0,0,0,0,0,0,0,0,0,0,0,1.7022,1.7022,0,1.706,1.706,1.7061,1.7001,1.6999,1.6997,1.6995,1.703,1.7033,1.7036,0,0,0,0,0,0,0,0,0,0,0,0,0,1.6893,1.6896,1.7021,1.7022,1.7022,1.706,1.706,1.7061,1.7001,1.6999,1.6996,1.6994,1.7029,1.7033,1.7036,0,0,0,0,0,0,0,0,0,0,0,0,0,1.6942,1.6897,1.7021,1.6997,1.6996,1.706,1.706,1.7061,1.7002,1.6999,1.6996,1.6993,1.7028,1.7032,1.7036,1.7125,0,0,1.705,1.7051,0,0,0,0,0,0,0,0,1.6939,1.6947,1.7,1.6999,1.6997,1.7023,1.7028,1.7082,1.7003,1.6999,1.6995,1.6991,1.703,1.7034,1.7048,1.7126,1.7128,1.705,1.7053,1.7054,1.7056,0,0,0,0,0,0,0,1.6936,1.6945,1.7037,1.7001,1.6999,1.6984,1.6987,1.7038,1.7031,1.6999,1.6995,1.7001,1.7028,1.7044,1.7048,1.7128,1.705,1.7054,1.7056,1.7058,1.7282,1.7286,0,0,0,0,0,0,1.6936,1.6942,1.7035,1.7038,1.696,1.6988,1.6992,1.7017,1.7031,1.703,1.7003,1.6998,1.7038,1.7043,1.7049,1.7154,1.7054,1.7058,1.7061,1.7279,1.7283,1.7287,0,0,0,0,0,0,1.6934,1.6945,1.7034,1.6989,1.6999,1.6994,1.7023,1.702,1.7035,1.7034,1.7032,1.702,1.7036,1.7043,1.7107,1.7154,1.706,1.7064,1.7275,1.728,1.7285,1.7363,0,0,0,0,0,0,1.693,1.6944,1.6978,1.699,1.7002,1.7092,1.7026,1.7023,1.7043,1.7036,1.7049,1.7048,1.7034,1.7101,1.7111,1.7158,1.7068,1.7271,1.7277,1.7283,1.7356,1.737,1.7382,0,0,0,0,0,1.6926,1.6998,1.698,1.6992,1.7044,1.7095,1.7101,1.7084,1.7047,1.7081,1.708,1.7048,1.7148,1.7108,1.7119,1.7168,1.7268,1.7276,1.7283,1.7351,1.7368,1.7382,0,0,0,0,0,0,1.6989,1.6999,1.698,1.7058,1.7076,1.7085,1.7126,1.7103,1.7131,1.7123,1.7099,1.7103,1.7172,1.7176,1.7132,1.7255,1.7201,1.7212,1.7249,1.7265,1.7278,1.7275,1.7071,0,0,0,0,0,1.7013,1.7055,1.706,1.7128,1.7139,1.7132,1.7153,1.7139,1.7156,1.7163,1.7167,1.7184,1.7219,1.7242,1.7275,1.7357,1.7359,1.7397,1.741,1.742,1.7429,1.7473,1.749,1.7312,1.7312,1.7312,0,0,1.7061,1.7071,1.7099,1.7142,1.7154,1.7197,1.7138,1.7185,1.7216,1.7169,1.723,1.7234,1.7252,1.7326,1.7358,1.7332,1.7479,1.743,1.7439,1.7441,1.7483,1.75,1.7515,1.7317,1.7316,1.7315,0,0,1.7171,1.7183,1.7242,1.7256,1.7277,1.7272,1.7286,1.7299,1.73,1.7362,1.7328,1.7364,1.7425,1.7439,1.7454,1.7572,1.7543,1.7583,1.765,1.7694,1.7708,1.772,1.7762,1.7777,1.7592,1.7592,1.7593,0,1.7227,1.7291,1.7274,1.7325,1.7345,1.7307,1.7366,1.738,1.7409,1.7424,1.7394,1.7471,1.748,1.7557,1.7586,1.76,1.7615,1.7581,1.7708,1.772,1.7731,1.7771,1.7786,1.7597,1.7597,1.7596,1.7596,0,1.736,1.7405,1.745,1.7482,1.7507,1.7561,1.7552,1.7579,1.7563,1.7561,1.7625,1.7635,1.7669,1.7686,1.767,1.7761,1.7744,1.7712,1.7657,1.7753,1.779,1.7805,1.7604,1.7602,1.7601,1.76,0,0,1.7508,1.7532,1.7549,1.7563,1.7584,1.7618,1.7671,1.7706,1.773,1.7752,1.7796,1.7849,1.782,1.7837,1.7823,1.7862,1.7955,1.7824,1.7824,1.7848,1.8055,1.8079,1.8097,1.7936,1.7939,1.7941,1.8054,0,1.7617,1.771,1.7697,1.7786,1.7827,1.7793,1.7839,1.7857,1.7857,1.7891,1.7891,1.793,1.7888,1.7898,1.7935,1.7935,1.7996,1.7927,1.7975,1.7977,1.7971,1.8116,1.8141,1.8247,1.8068,1.8071,1.8072,0,1.7756,1.7786,1.7879,1.7896,1.7912,1.7954,1.7986,1.802,1.8039,1.8037,1.8058,1.8037,1.8089,1.8036,1.8107,1.8061,1.808,1.8083,1.8087,1.809,1.803,1.8122,1.828,1.8296,1.8095,1.8093,1.8091,0,1.7854,1.7918,1.7982,1.7995,1.8016,1.8046,1.8056,1.8073,1.8095,1.8123,1.8137,1.817,1.8188,1.8214,1.8202,1.8164,1.8276,1.8221,1.8274,1.8275,1.8298,1.8296,1.846,1.8312,1.8312,1.8312,1.8311,0,1.7976,1.8035,1.8027,1.8066,1.8131,1.8116,1.818,1.8185,1.8201,1.824,1.8212,1.8249,1.8233,1.8269,1.826,1.8321,1.8329,1.8328,1.8324,1.833,1.833,1.8341,1.8333,1.8316,1.8315,1.8314,1.8313,0,1.8096,1.8093,1.8161,1.8176,1.8182,1.8229,1.8241,1.8278,1.8277,1.8327,1.8338,1.8336,1.8377,1.8369,1.8414,1.8408,1.8484,1.8472,1.8478,1.8475,1.8528,1.8523,1.8704,1.8727,1.8565,1.8567,1.8568,0,1.8174,1.8218,1.8239,1.8265,1.8277,1.8318,1.8342,1.8329,1.8355,1.8382,1.8415,1.8455,1.8485,1.8552,1.8554,1.8588,1.8577,1.8638,1.8581,1.8586,1.8577,1.8574,1.8578,1.8648,1.865,1.8652,1.8653,0,1.8312,1.8309,1.8345,1.8381,1.8411,1.8438,1.8462,1.8484,1.8474,1.8504,1.8547,1.8571,1.8618,1.8657,1.869,1.8698,1.8674,1.8671,1.8685,1.869,1.8692,1.8692,1.8508,1.8667,1.8665,1.8664,1.8664,1.8663,1.8412,1.8451,1.8472,1.8513,1.8531,1.8555,1.8591,1.8596,1.8632,1.8671,1.8661,1.871,1.8729,1.877,1.8783,1.882,1.8797,1.8818,1.8823,1.8828,1.8834,1.8687,1.8826,1.8826,1.8826,1.8825,1.8825,0,1.8549,1.8561,1.86,1.8636,1.8669,1.8646,1.8672,1.8701,1.8744,1.8765,1.8797,1.8847,1.8885,1.8891,1.8927,1.8956,1.8946,1.8966,1.8963,1.8966,1.8853,1.8837,1.8974,1.8974,1.8974,1.8974,1.8974,1.8974,1.8623,1.8687,1.8687,1.876,1.8772,1.8821,1.8838,1.886,1.8877,1.8935,1.8967,1.8972,1.8987,1.9024,1.9058,1.9059,1.9073,1.9098,1.9094,1.8988,1.8973,1.8959,1.8944,1.9101,1.9101,1.9204,1.9205,1.9205]}]]